Regional Weather Roundup
Issued by NWS Northern Indiana

Home | Current Version | Previous Version | Text Only | Print | Product List | Glossary Off
Versions: 1 2 3 4 5 6 7 8 9 10 11 12 13 14 15 16 17 18 19 20 21 22 23 24 25 26 27 28 29 30 31 32 33 34 35 36 37 38 39 40 41 42 43 44 45 46 47 48 49 50

000
ASUS43 KIWX 250400
RWRIWX

KIWX WEATHER ROUNDUP
NATIONAL WEATHER SERVICE NORTHERN INDIANA
1200 AM EDT FRI JUL 25 2014

NOTE: "FAIR" INDICATES FEW OR NO CLOUDS BELOW 12,000 FEET WITH NO
SIGNIFICANT WEATHER AND/OR OBSTRUCTIONS TO VISIBILITY.

* THESE STATIONS ARE NOT UNDER NWS QUALITY CONTROL. THEY ALSO MAY NOT
  REPORT WEATHER SUCH AS PRECIPITATION OR FOG.

INZ001>027-250500-
NORTHERN INDIANA

CITY           SKY/WX    TMP DP  RH WIND       PRES   REMARKS
GARY*          PTCLDY    58  54  88 CALM      30.07F
VALPARAISO     PTCLDY    55  51  86 E3        30.08F
KNOX*          FAIR      54  51  88 CALM      30.07F
SOUTH BEND     PTCLDY    60  51  72 CALM      30.08F
GOSHEN         CLEAR     61  54  77 NE5       30.07F
MONTICELLO*    PTCLDY    61  56  84 NE5       30.06F
WARSAW*        CLEAR     59  54  82 CALM      30.08F
ANGOLA*        CLEAR     55  54  94 CALM      30.09F
FORT WAYNE     MOCLDY    61  55  81 CALM      30.08S
PERU/GRISSOM   PTCLDY    60  57  92 N1        30.07F

$$
INZ028>050-250500-
CENTRAL INDIANA

CITY           SKY/WX    TMP DP  RH WIND       PRES   REMARKS
LAFAYETTE      PTCLDY    58  55  90 CALM      30.07S
KOKOMO*        PTCLDY    55  48  76 CALM      30.07F
MUNCIE*        CLEAR     58  52  80 CALM      30.08F
INDIANAPOLIS   CLEAR     64  52  64 E5        30.06F

$$
MIZ043>046-050>051-056>058-064>065-071>073-077>080-250500-
SOUTHWEST LOWER MICHIGAN

CITY           SKY/WX    TMP DP  RH WIND       PRES   REMARKS
BATTLE CREEK   CLEAR     61  51  70 W3        30.09F
BENTON HARBOR  PTCLDY    52  50  93 E5        30.07F
COLDWATER*     CLEAR     60  54  80 CALM      30.08F
HILLSDALE*     CLEAR     54  53  96 CALM      30.09S
HOLLAND        CLEAR     56  50  80 CALM      30.07F
GRAND RAPIDS   PTCLDY    59  51  75 CALM      30.08F
KALAMAZOO      CLEAR     59  49  69 CALM      30.08F
STURGIS*       CLEAR     57  54  88 CALM      30.08F
THREE RIVERS*  FAIR      58  54  86 CALM      30.08F

$$
OHZ001>008-015>018-024>025-250500-
NORTHWEST OHIO

CITY           SKY/WX    TMP DP  RH WIND       PRES   REMARKS
DEFIANCE       CLEAR     58  53  84 CALM      30.09R
FINDLAY        CLEAR     59  52  77 CALM      30.08R
TOLEDO EXPRESS CLEAR     57  53  86 CALM      30.08R
TOLEDO METCALF CLEAR     62  51  67 CALM      30.09R
LIMA           CLEAR     59  52  77 CALM      30.09R

$$
&&


USA.gov is the U.S. government's official web portal to all federal, state and local government web resources and services.